Tracking 29892 objects as of 21-Nov-2024
HD Live streaming from Space Station
objects crossing your sky now

SCOUT G-1 DEB

Track SCOUT G-1 DEB now!
10-day predictions


NORAD ID: 19140
Int'l Code: 1988-033F
Perigee: 866.0 km
Apogee: 1,207.7 km
Inclination: 90.3 °
Period: 105.8 minutes
Semi major axis: 7407 km
RCS: 0.0071 m2 (small)
Launch date: April 26, 1988
Source: United States (US)
Launch site: AIR FORCE WESTERN TEST RANGE (AFWTR)

Note: This is SATELLITE DEBRIS
Your satellite tracking list
Your tracking list is empty




NASA's NSSDC Master Catalog

Two Line Element Set (TLE):
1 19140U 88033F   24325.76818552  .00003048  00000-0  33218-2 0  9999
2 19140  90.2973 356.1652 0230678  54.7308   6.8274 13.61646949793968
Source of the keplerian elements: AFSPC